contact:dominique.lefevre@mio.osupytheas.fr, maurice.libes@osupytheas.fr, didier.mallarino@osupytheas.fr
Project:EMSO http://www.emso-fr.org/EMSO-France
Depth: 2436.0 m
Title:EMSO Ligure Ouest : Data MII capteur MICROCAT
DateTime_Computer,Latitude,Longitude,Temperature,Conductivity,Pressure,DateTime_Instrument
DateTime_Computer,Latitude,Longitude,degC,S m-1,dbar,DateTime_Instrument
2022-10-03T00:01:24Z,42.805,6.029,13.3040,4.60120,2470.6,2022-10-03T02:03:18Z
2022-10-03T00:04:27Z,42.805,6.029,13.3039,4.60121,2470.614,2022-10-03T02:06:21Z
2022-10-03T00:07:31Z,42.805,6.029,13.3039,4.60137,2470.637,2022-10-03T02:09:24Z
2022-10-03T00:10:34Z,42.805,6.029,13.3025,4.60105,2470.637,2022-10-03T02:12:28Z
2022-10-03T00:13:37Z,42.805,6.029,13.3041,4.60099,2470.6,2022-10-03T02:15:31Z
2022-10-03T00:16:40Z,42.805,6.029,13.3039,4.60104,2470.577,2022-10-03T02:18:34Z
2022-10-03T00:19:43Z,42.805,6.029,13.3027,4.60105,2470.6,2022-10-03T02:21:37Z
2022-10-03T00:22:46Z,42.805,6.029,13.3029,4.60079,2470.577,2022-10-03T02:24:40Z
2022-10-03T00:25:49Z,42.805,6.029,13.3031,4.60083,2470.591,2022-10-03T02:27:43Z
2022-10-03T00:28:52Z,42.805,6.029,13.3024,4.60087,2470.591,2022-10-03T02:30:46Z
2022-10-03T00:31:55Z,42.805,6.029,13.3030,4.60115,2470.624,2022-10-03T02:33:49Z
2022-10-03T00:34:59Z,42.805,6.029,13.3036,4.60133,2470.6,2022-10-03T02:36:53Z
2022-10-03T00:38:02Z,42.805,6.029,13.3041,4.60132,2470.614,2022-10-03T02:39:56Z
2022-10-03T00:41:05Z,42.805,6.029,13.3046,4.60119,2470.624,2022-10-03T02:42:59Z
2022-10-03T00:44:08Z,42.805,6.029,13.3041,4.60114,2470.614,2022-10-03T02:46:02Z
2022-10-03T00:47:11Z,42.805,6.029,13.3036,4.60133,2470.6,2022-10-03T02:49:05Z
2022-10-03T00:50:14Z,42.805,6.029,13.3042,4.60106,2470.6,2022-10-03T02:52:08Z
2022-10-03T00:53:17Z,42.805,6.029,13.3046,4.60117,2470.6,2022-10-03T02:55:11Z
2022-10-03T00:56:20Z,42.805,6.029,13.3036,4.60114,2470.591,2022-10-03T02:58:14Z
2022-10-03T00:59:23Z,42.805,6.029,13.3028,4.60104,2470.591,2022-10-03T03:01:17Z
2022-10-03T01:02:27Z,42.805,6.029,13.3038,4.60117,2470.591,2022-10-03T03:04:21Z
2022-10-03T01:05:30Z,42.805,6.029,13.3026,4.60117,2470.6,2022-10-03T03:07:24Z
2022-10-03T01:08:33Z,42.805,6.029,13.3038,4.60108,2470.577,2022-10-03T03:10:27Z
2022-10-03T01:11:36Z,42.805,6.029,13.3021,4.60115,2470.6,2022-10-03T03:13:30Z
2022-10-03T01:14:39Z,42.805,6.029,13.3036,4.60099,2470.6,2022-10-03T03:16:33Z
2022-10-03T01:17:42Z,42.805,6.029,13.3050,4.60100,2470.6,2022-10-03T03:19:36Z
2022-10-03T01:20:45Z,42.805,6.029,13.3036,4.60110,2470.577,2022-10-03T03:22:39Z
2022-10-03T01:23:48Z,42.805,6.029,13.3028,4.60117,2470.6,2022-10-03T03:25:42Z
2022-10-03T01:26:52Z,42.805,6.029,13.3041,4.60104,2470.553,2022-10-03T03:28:45Z
2022-10-03T01:29:55Z,42.805,6.029,13.3013,4.60084,2470.591,2022-10-03T03:31:49Z
2022-10-03T01:32:58Z,42.805,6.029,13.3024,4.60110,2470.577,2022-10-03T03:34:52Z
2022-10-03T01:36:01Z,42.805,6.029,13.3036,4.60107,2470.6,2022-10-03T03:37:55Z
2022-10-03T01:39:04Z,42.805,6.029,13.3046,4.60117,2470.567,2022-10-03T03:40:58Z
2022-10-03T01:42:07Z,42.805,6.029,13.3029,4.60104,2470.614,2022-10-03T03:44:01Z
2022-10-03T01:45:10Z,42.805,6.029,13.3025,4.60082,2470.591,2022-10-03T03:47:04Z
2022-10-03T01:48:13Z,42.805,6.029,13.3029,4.60090,2470.591,2022-10-03T03:50:07Z
2022-10-03T01:51:16Z,42.805,6.029,13.3038,4.60079,2470.614,2022-10-03T03:53:10Z
2022-10-03T01:54:20Z,42.805,6.029,13.3041,4.60097,2470.614,2022-10-03T03:56:14Z
2022-10-03T01:57:23Z,42.805,6.029,13.3042,4.60127,2470.577,2022-10-03T03:59:17Z
2022-10-03T02:00:26Z,42.805,6.029,13.3019,4.60090,2470.591,2022-10-03T04:02:20Z
2022-10-03T02:03:29Z,42.805,6.029,13.3038,4.60101,2470.553,2022-10-03T04:05:23Z
2022-10-03T02:06:32Z,42.805,6.029,13.3038,4.60086,2470.553,2022-10-03T04:08:26Z
2022-10-03T02:09:35Z,42.805,6.029,13.3032,4.60081,2470.591,2022-10-03T04:11:29Z
2022-10-03T02:12:38Z,42.805,6.029,13.3049,4.60098,2470.591,2022-10-03T04:14:32Z
2022-10-03T02:15:41Z,42.805,6.029,13.3044,4.60072,2470.591,2022-10-03T04:17:35Z
2022-10-03T02:18:44Z,42.805,6.029,13.3046,4.60104,2470.567,2022-10-03T04:20:38Z
2022-10-03T02:21:48Z,42.805,6.029,13.3038,4.60091,2470.577,2022-10-03T04:23:42Z
2022-10-03T02:24:51Z,42.805,6.029,13.3031,4.60074,2470.567,2022-10-03T04:26:45Z
2022-10-03T02:27:54Z,42.805,6.029,13.3046,4.60095,2470.553,2022-10-03T04:29:48Z
2022-10-03T02:30:57Z,42.805,6.029,13.3042,4.60127,2470.577,2022-10-03T04:32:51Z
2022-10-03T02:34:00Z,42.805,6.029,13.3040,4.60092,2470.591,2022-10-03T04:35:54Z
2022-10-03T02:37:03Z,42.805,6.029,13.3034,4.60095,2470.544,2022-10-03T04:38:57Z
2022-10-03T02:40:06Z,42.805,6.029,13.3029,4.60102,2470.577,2022-10-03T04:42:00Z
2022-10-03T02:43:09Z,42.805,6.029,13.3029,4.60081,2470.567,2022-10-03T04:45:03Z
2022-10-03T02:46:13Z,42.805,6.029,13.3029,4.60082,2470.567,2022-10-03T04:48:07Z
2022-10-03T02:49:16Z,42.805,6.029,13.3038,4.60084,2470.553,2022-10-03T04:51:10Z
2022-10-03T02:52:19Z,42.805,6.029,13.3031,4.60081,2470.591,2022-10-03T04:54:13Z
2022-10-03T02:55:22Z,42.805,6.029,13.3034,4.60073,2470.544,2022-10-03T04:57:16Z
2022-10-03T02:58:25Z,42.805,6.029,13.3031,4.60089,2470.577,2022-10-03T05:00:19Z
2022-10-03T03:01:28Z,42.805,6.029,13.3029,4.60079,2470.577,2022-10-03T05:03:22Z
2022-10-03T03:04:31Z,42.805,6.029,13.3029,4.60109,2470.591,2022-10-03T05:06:25Z
2022-10-03T03:07:34Z,42.805,6.029,13.3036,4.60091,2470.577,2022-10-03T05:09:28Z
2022-10-03T03:10:37Z,42.805,6.029,13.3043,4.60109,2470.577,2022-10-03T05:12:31Z
2022-10-03T03:13:41Z,42.805,6.029,13.3036,4.60094,2470.577,2022-10-03T05:15:35Z
2022-10-03T03:16:44Z,42.805,6.029,13.3033,4.60082,2470.53,2022-10-03T05:18:38Z
2022-10-03T03:19:47Z,42.805,6.029,13.3019,4.60070,2470.567,2022-10-03T05:21:41Z
2022-10-03T03:22:50Z,42.805,6.029,13.3024,4.60074,2470.553,2022-10-03T05:24:44Z
2022-10-03T03:25:53Z,42.805,6.029,13.3026,4.60081,2470.544,2022-10-03T05:27:47Z
2022-10-03T03:28:56Z,42.805,6.029,13.3029,4.60077,2470.567,2022-10-03T05:30:50Z
2022-10-03T03:31:59Z,42.805,6.029,13.3024,4.60064,2470.577,2022-10-03T05:33:53Z
2022-10-03T03:35:02Z,42.805,6.029,13.3027,4.60077,2470.567,2022-10-03T05:36:56Z
2022-10-03T03:38:06Z,42.805,6.029,13.3021,4.60059,2470.591,2022-10-03T05:40:00Z
2022-10-03T03:41:09Z,42.805,6.029,13.3028,4.60079,2470.567,2022-10-03T05:43:03Z
2022-10-03T03:44:12Z,42.805,6.029,13.3032,4.60075,2470.544,2022-10-03T05:46:06Z
2022-10-03T03:47:15Z,42.805,6.029,13.3019,4.60073,2470.544,2022-10-03T05:49:09Z
2022-10-03T03:50:18Z,42.805,6.029,13.3030,4.60078,2470.53,2022-10-03T05:52:12Z
2022-10-03T03:53:21Z,42.805,6.029,13.3039,4.60086,2470.53,2022-10-03T05:55:15Z
2022-10-03T03:56:24Z,42.805,6.029,13.3027,4.60072,2470.567,2022-10-03T05:58:18Z
2022-10-03T03:59:27Z,42.805,6.029,13.3025,4.60080,2470.53,2022-10-03T06:01:21Z
2022-10-03T04:02:30Z,42.805,6.029,13.3027,4.60104,2470.553,2022-10-03T06:04:24Z
2022-10-03T04:05:34Z,42.805,6.029,13.3044,4.60132,2470.567,2022-10-03T06:07:28Z
2022-10-03T04:08:37Z,42.805,6.029,13.3026,4.60081,2470.53,2022-10-03T06:10:31Z
2022-10-03T04:11:40Z,42.805,6.029,13.3038,4.60119,2470.53,2022-10-03T06:13:34Z
2022-10-03T04:14:43Z,42.805,6.029,13.3028,4.60081,2470.553,2022-10-03T06:16:37Z
2022-10-03T04:17:46Z,42.805,6.029,13.3023,4.60094,2470.53,2022-10-03T06:19:40Z
2022-10-03T04:20:49Z,42.805,6.029,13.3019,4.60095,2470.53,2022-10-03T06:22:43Z
2022-10-03T04:23:52Z,42.805,6.029,13.3033,4.60117,2470.553,2022-10-03T06:25:46Z
2022-10-03T04:26:55Z,42.805,6.029,13.3037,4.60119,2470.544,2022-10-03T06:28:49Z
2022-10-03T04:29:58Z,42.805,6.029,13.3029,4.60098,2470.52,2022-10-03T06:31:52Z
2022-10-03T04:33:02Z,42.805,6.029,13.3041,4.60102,2470.53,2022-10-03T06:34:56Z
2022-10-03T04:36:05Z,42.805,6.029,13.3031,4.60100,2470.507,2022-10-03T06:37:59Z
2022-10-03T04:39:08Z,42.805,6.029,13.3021,4.60080,2470.507,2022-10-03T06:41:02Z
2022-10-03T04:42:11Z,42.805,6.029,13.3037,4.60107,2470.52,2022-10-03T06:44:05Z
2022-10-03T04:45:14Z,42.805,6.029,13.3034,4.60110,2470.567,2022-10-03T06:47:08Z
2022-10-03T04:48:17Z,42.805,6.029,13.3034,4.60094,2470.544,2022-10-03T06:50:11Z
2022-10-03T04:51:20Z,42.805,6.029,13.3025,4.60097,2470.553,2022-10-03T06:53:14Z
2022-10-03T04:54:23Z,42.805,6.029,13.3041,4.60138,2470.544,2022-10-03T06:56:17Z
2022-10-03T04:57:27Z,42.805,6.029,13.3034,4.60121,2470.553,2022-10-03T06:59:21Z
2022-10-03T05:00:30Z,42.805,6.029,13.3043,4.60114,2470.553,2022-10-03T07:02:24Z
2022-10-03T05:03:33Z,42.805,6.029,13.3044,4.60122,2470.52,2022-10-03T07:05:27Z
2022-10-03T05:06:36Z,42.805,6.029,13.3031,4.60109,2470.53,2022-10-03T07:08:30Z
2022-10-03T05:09:39Z,42.805,6.029,13.3029,4.60128,2470.52,2022-10-03T07:11:33Z
2022-10-03T05:12:42Z,42.805,6.029,13.3026,4.60117,2470.53,2022-10-03T07:14:36Z
2022-10-03T05:15:45Z,42.805,6.029,13.3043,4.60113,2470.53,2022-10-03T07:17:39Z
2022-10-03T05:18:48Z,42.805,6.029,13.3038,4.60109,2470.507,2022-10-03T07:20:42Z
2022-10-03T05:21:51Z,42.805,6.029,13.3036,4.60110,2470.52,2022-10-03T07:23:45Z
2022-10-03T05:24:55Z,42.805,6.029,13.3030,4.60097,2470.544,2022-10-03T07:26:49Z
2022-10-03T05:27:58Z,42.805,6.029,13.3018,4.60114,2470.507,2022-10-03T07:29:52Z
2022-10-03T05:31:01Z,42.805,6.029,13.3047,4.60116,2470.53,2022-10-03T07:32:55Z
2022-10-03T05:34:04Z,42.805,6.029,13.3041,4.60129,2470.507,2022-10-03T07:35:58Z
2022-10-03T05:37:07Z,42.805,6.029,13.3039,4.60119,2470.53,2022-10-03T07:39:01Z
2022-10-03T05:40:10Z,42.805,6.029,13.3039,4.60117,2470.53,2022-10-03T07:42:04Z
2022-10-03T05:43:13Z,42.805,6.029,13.3014,4.60112,2470.53,2022-10-03T07:45:07Z
2022-10-03T05:46:16Z,42.805,6.029,13.3043,4.60110,2470.507,2022-10-03T07:48:10Z
2022-10-03T05:49:19Z,42.805,6.029,13.3025,4.60117,2470.507,2022-10-03T07:51:13Z
2022-10-03T05:52:23Z,42.805,6.029,13.3034,4.60120,2470.507,2022-10-03T07:54:17Z
2022-10-03T05:55:26Z,42.805,6.029,13.3035,4.60112,2470.52,2022-10-03T07:57:20Z
2022-10-03T05:58:29Z,42.805,6.029,13.3034,4.60099,2470.53,2022-10-03T08:00:23Z
2022-10-03T06:01:32Z,42.805,6.029,13.3030,4.60105,2470.544,2022-10-03T08:03:26Z
2022-10-03T06:04:35Z,42.805,6.029,13.3032,4.60112,2470.507,2022-10-03T08:06:29Z
2022-10-03T06:07:38Z,42.805,6.029,13.3030,4.60103,2470.52,2022-10-03T08:09:32Z
2022-10-03T06:10:41Z,42.805,6.029,13.3035,4.60103,2470.497,2022-10-03T08:12:35Z
2022-10-03T06:13:44Z,42.805,6.029,13.3031,4.60094,2470.507,2022-10-03T08:15:38Z
2022-10-03T06:16:48Z,42.805,6.029,13.3026,4.60108,2470.52,2022-10-03T08:18:42Z
2022-10-03T06:19:51Z,42.805,6.029,13.3029,4.60107,2470.483,2022-10-03T08:21:45Z
2022-10-03T06:22:54Z,42.805,6.029,13.3042,4.60098,2470.507,2022-10-03T08:24:48Z
2022-10-03T06:25:57Z,42.805,6.029,13.3019,4.60106,2470.483,2022-10-03T08:27:51Z
2022-10-03T06:29:00Z,42.805,6.029,13.3024,4.60097,2470.53,2022-10-03T08:30:54Z
2022-10-03T06:32:03Z,42.805,6.029,13.3025,4.60107,2470.507,2022-10-03T08:33:57Z
2022-10-03T06:35:06Z,42.805,6.029,13.3034,4.60097,2470.553,2022-10-03T08:37:00Z
2022-10-03T06:38:09Z,42.805,6.029,13.3027,4.60076,2470.544,2022-10-03T08:40:03Z
2022-10-03T06:41:12Z,42.805,6.029,13.3031,4.60107,2470.507,2022-10-03T08:43:06Z
2022-10-03T06:44:16Z,42.805,6.029,13.3027,4.60104,2470.507,2022-10-03T08:46:10Z
2022-10-03T06:47:19Z,42.805,6.029,13.3035,4.60116,2470.52,2022-10-03T08:49:13Z
2022-10-03T06:50:22Z,42.805,6.029,13.3039,4.60106,2470.53,2022-10-03T08:52:16Z
2022-10-03T06:53:25Z,42.805,6.029,13.3032,4.60089,2470.483,2022-10-03T08:55:19Z
2022-10-03T06:56:28Z,42.805,6.029,13.3029,4.60097,2470.544,2022-10-03T08:58:22Z
2022-10-03T06:59:31Z,42.805,6.029,13.3033,4.60127,2470.53,2022-10-03T09:01:25Z
2022-10-03T07:02:34Z,42.805,6.029,13.3036,4.60107,2470.507,2022-10-03T09:04:28Z
2022-10-03T07:05:37Z,42.805,6.029,13.3031,4.60113,2470.544,2022-10-03T09:07:31Z
2022-10-03T07:08:40Z,42.805,6.029,13.3027,4.60109,2470.507,2022-10-03T09:10:34Z
2022-10-03T07:11:44Z,42.805,6.029,13.3025,4.60101,2470.497,2022-10-03T09:13:38Z
2022-10-03T07:14:47Z,42.805,6.029,13.3031,4.60107,2470.507,2022-10-03T09:16:41Z
2022-10-03T07:17:50Z,42.805,6.029,13.3024,4.60105,2470.507,2022-10-03T09:19:44Z
2022-10-03T07:20:53Z,42.805,6.029,13.3025,4.60114,2470.567,2022-10-03T09:22:47Z
2022-10-03T07:23:56Z,42.805,6.029,13.3023,4.60112,2470.483,2022-10-03T09:25:50Z
2022-10-03T07:26:59Z,42.805,6.029,13.3043,4.60117,2470.507,2022-10-03T09:28:53Z
2022-10-03T07:30:02Z,42.805,6.029,13.3026,4.60122,2470.544,2022-10-03T09:31:56Z
2022-10-03T07:33:05Z,42.805,6.029,13.3019,4.60111,2470.52,2022-10-03T09:34:59Z
2022-10-03T07:36:09Z,42.805,6.029,13.3034,4.60109,2470.53,2022-10-03T09:38:03Z
2022-10-03T07:39:12Z,42.805,6.029,13.3031,4.60115,2470.507,2022-10-03T09:41:06Z
2022-10-03T07:42:15Z,42.805,6.029,13.3032,4.60106,2470.53,2022-10-03T09:44:09Z
2022-10-03T07:45:18Z,42.805,6.029,13.3031,4.60108,2470.53,2022-10-03T09:47:12Z
2022-10-03T07:48:21Z,42.805,6.029,13.3020,4.60087,2470.507,2022-10-03T09:50:15Z
2022-10-03T07:51:24Z,42.805,6.029,13.3024,4.60113,2470.553,2022-10-03T09:53:18Z
2022-10-03T07:54:27Z,42.805,6.029,13.3022,4.60092,2470.52,2022-10-03T09:56:21Z
2022-10-03T07:57:30Z,42.805,6.029,13.3011,4.60081,2470.544,2022-10-03T09:59:24Z
2022-10-03T08:00:33Z,42.805,6.029,13.3016,4.60079,2470.53,2022-10-03T10:02:27Z
2022-10-03T08:03:37Z,42.805,6.029,13.3034,4.60102,2470.53,2022-10-03T10:05:31Z
2022-10-03T08:06:40Z,42.805,6.029,13.3029,4.60102,2470.53,2022-10-03T10:08:34Z
2022-10-03T08:09:43Z,42.805,6.029,13.3042,4.60110,2470.507,2022-10-03T10:11:37Z
2022-10-03T08:12:46Z,42.805,6.029,13.3043,4.60122,2470.53,2022-10-03T10:14:40Z
2022-10-03T08:15:49Z,42.805,6.029,13.3025,4.60105,2470.53,2022-10-03T10:17:43Z
2022-10-03T08:18:52Z,42.805,6.029,13.3026,4.60104,2470.567,2022-10-03T10:20:46Z
2022-10-03T08:21:55Z,42.805,6.029,13.3018,4.60097,2470.544,2022-10-03T10:23:49Z
2022-10-03T08:24:58Z,42.805,6.029,13.3035,4.60105,2470.53,2022-10-03T10:26:52Z
2022-10-03T08:28:02Z,42.805,6.029,13.3034,4.60097,2470.567,2022-10-03T10:29:56Z
2022-10-03T08:31:05Z,42.805,6.029,13.3037,4.60079,2470.567,2022-10-03T10:32:59Z
2022-10-03T08:34:08Z,42.805,6.029,13.3050,4.60107,2470.53,2022-10-03T10:36:02Z
2022-10-03T08:37:11Z,42.805,6.029,13.3039,4.60113,2470.553,2022-10-03T10:39:05Z
2022-10-03T08:40:14Z,42.805,6.029,13.3024,4.60070,2470.567,2022-10-03T10:42:08Z
2022-10-03T08:43:17Z,42.805,6.029,13.3022,4.60105,2470.53,2022-10-03T10:45:11Z
2022-10-03T08:46:20Z,42.805,6.029,13.3018,4.60077,2470.553,2022-10-03T10:48:14Z
2022-10-03T08:49:23Z,42.805,6.029,13.3041,4.60093,2470.563,2022-10-03T10:51:17Z
2022-10-03T08:52:27Z,42.805,6.029,13.3039,4.60092,2470.567,2022-10-03T10:54:21Z
2022-10-03T08:55:30Z,42.805,6.029,13.3024,4.60089,2470.567,2022-10-03T10:57:24Z
2022-10-03T08:58:33Z,42.805,6.029,13.3026,4.60077,2470.567,2022-10-03T11:00:27Z
2022-10-03T09:01:36Z,42.805,6.029,13.3024,4.60079,2470.567,2022-10-03T11:03:30Z
2022-10-03T09:04:39Z,42.805,6.029,13.3033,4.60089,2470.591,2022-10-03T11:06:33Z
2022-10-03T09:07:42Z,42.805,6.029,13.3031,4.60082,2470.553,2022-10-03T11:09:36Z
2022-10-03T09:10:45Z,42.805,6.029,13.3036,4.60075,2470.553,2022-10-03T11:12:39Z
2022-10-03T09:13:48Z,42.805,6.029,13.3031,4.60102,2470.577,2022-10-03T11:15:42Z
2022-10-03T09:16:51Z,42.805,6.029,13.3032,4.60122,2470.553,2022-10-03T11:18:45Z
2022-10-03T09:19:55Z,42.805,6.029,13.3030,4.60097,2470.591,2022-10-03T11:21:49Z
2022-10-03T09:22:58Z,42.805,6.029,13.3042,4.60069,2470.577,2022-10-03T11:24:52Z
2022-10-03T09:26:01Z,42.805,6.029,13.3023,4.60069,2470.567,2022-10-03T11:27:55Z
2022-10-03T09:29:04Z,42.805,6.029,13.3046,4.60087,2470.553,2022-10-03T11:30:58Z
2022-10-03T09:32:07Z,42.805,6.029,13.3046,4.60110,2470.591,2022-10-03T11:34:01Z
2022-10-03T09:35:10Z,42.805,6.029,13.3040,4.60102,2470.6,2022-10-03T11:37:04Z
2022-10-03T09:38:13Z,42.805,6.029,13.3022,4.60084,2470.6,2022-10-03T11:40:07Z
2022-10-03T09:41:16Z,42.805,6.029,13.3036,4.60069,2470.591,2022-10-03T11:43:10Z
2022-10-03T09:44:20Z,42.805,6.029,13.3047,4.60088,2470.577,2022-10-03T11:46:14Z
2022-10-03T09:47:23Z,42.805,6.029,13.3041,4.60068,2470.6,2022-10-03T11:49:17Z
2022-10-03T09:50:26Z,42.805,6.029,13.3026,4.60060,2470.577,2022-10-03T11:52:20Z
2022-10-03T09:53:29Z,42.805,6.029,13.3021,4.60083,2470.614,2022-10-03T11:55:23Z
2022-10-03T09:56:32Z,42.805,6.029,13.3025,4.60089,2470.637,2022-10-03T11:58:26Z
2022-10-03T09:59:35Z,42.805,6.029,13.3032,4.60074,2470.614,2022-10-03T12:01:29Z
2022-10-03T10:02:38Z,42.805,6.029,13.3031,4.60092,2470.577,2022-10-03T12:04:32Z
2022-10-03T10:05:41Z,42.805,6.029,13.3031,4.60078,2470.6,2022-10-03T12:07:35Z
2022-10-03T10:08:45Z,42.805,6.029,13.3031,4.60067,2470.6,2022-10-03T12:10:39Z
2022-10-03T10:11:48Z,42.805,6.029,13.3027,4.60074,2470.624,2022-10-03T12:13:42Z
2022-10-03T10:14:51Z,42.805,6.029,13.3015,4.60090,2470.591,2022-10-03T12:16:45Z
2022-10-03T10:17:54Z,42.805,6.029,13.3047,4.60101,2470.6,2022-10-03T12:19:48Z
2022-10-03T10:20:57Z,42.805,6.029,13.3041,4.60074,2470.637,2022-10-03T12:22:51Z
2022-10-03T10:24:00Z,42.805,6.029,13.3014,4.60081,2470.637,2022-10-03T12:25:54Z
2022-10-03T10:27:03Z,42.805,6.029,13.3019,4.60081,2470.614,2022-10-03T12:28:57Z
2022-10-03T10:30:06Z,42.805,6.029,13.3027,4.60065,2470.637,2022-10-03T12:32:00Z
2022-10-03T10:33:10Z,42.805,6.029,13.3026,4.60070,2470.624,2022-10-03T12:35:04Z
2022-10-03T10:36:13Z,42.805,6.029,13.3026,4.60092,2470.6,2022-10-03T12:38:07Z
2022-10-03T10:39:16Z,42.805,6.029,13.3027,4.60099,2470.646,2022-10-03T12:41:10Z
2022-10-03T10:42:19Z,42.805,6.029,13.3038,4.60079,2470.624,2022-10-03T12:44:13Z
2022-10-03T10:45:22Z,42.805,6.029,13.3039,4.60072,2470.637,2022-10-03T12:47:16Z
2022-10-03T10:48:25Z,42.805,6.029,13.3031,4.60076,2470.637,2022-10-03T12:50:19Z
2022-10-03T10:51:28Z,42.805,6.029,13.3014,4.60084,2470.624,2022-10-03T12:53:22Z
2022-10-03T10:54:31Z,42.805,6.029,13.3029,4.60081,2470.646,2022-10-03T12:56:25Z
2022-10-03T10:57:34Z,42.805,6.029,13.3030,4.60102,2470.624,2022-10-03T12:59:28Z
2022-10-03T11:00:38Z,42.805,6.029,13.3036,4.60080,2470.646,2022-10-03T13:02:32Z
2022-10-03T11:03:41Z,42.805,6.029,13.3026,4.60099,2470.624,2022-10-03T13:05:35Z
2022-10-03T11:06:44Z,42.805,6.029,13.3033,4.60086,2470.646,2022-10-03T13:08:38Z
2022-10-03T11:09:47Z,42.805,6.029,13.3041,4.60086,2470.624,2022-10-03T13:11:41Z
2022-10-03T11:12:50Z,42.805,6.029,13.3048,4.60091,2470.6,2022-10-03T13:14:44Z
2022-10-03T11:15:53Z,42.805,6.029,13.3032,4.60085,2470.637,2022-10-03T13:17:47Z
2022-10-03T11:18:56Z,42.805,6.029,13.3044,4.60092,2470.624,2022-10-03T13:20:50Z
2022-10-03T11:21:59Z,42.805,6.029,13.3033,4.60099,2470.6,2022-10-03T13:23:53Z
2022-10-03T11:25:03Z,42.805,6.029,13.3036,4.60064,2470.646,2022-10-03T13:26:57Z
2022-10-03T11:28:06Z,42.805,6.029,13.3036,4.60092,2470.67,2022-10-03T13:30:00Z
2022-10-03T11:31:09Z,42.805,6.029,13.3035,4.60092,2470.637,2022-10-03T13:33:03Z
2022-10-03T11:34:12Z,42.805,6.029,13.3044,4.60085,2470.646,2022-10-03T13:36:06Z
2022-10-03T11:37:15Z,42.805,6.029,13.3048,4.60079,2470.67,2022-10-03T13:39:09Z
2022-10-03T11:40:18Z,42.805,6.029,13.3026,4.60072,2470.646,2022-10-03T13:42:12Z
2022-10-03T11:43:21Z,42.805,6.029,13.3021,4.60070,2470.684,2022-10-03T13:45:15Z
2022-10-03T11:46:24Z,42.805,6.029,13.3028,4.60069,2470.661,2022-10-03T13:48:18Z
2022-10-03T11:49:28Z,42.805,6.029,13.3039,4.60068,2470.646,2022-10-03T13:51:22Z
2022-10-03T11:52:31Z,42.805,6.029,13.3021,4.60076,2470.637,2022-10-03T13:54:25Z
2022-10-03T11:55:34Z,42.805,6.029,13.3026,4.60093,2470.637,2022-10-03T13:57:28Z
2022-10-03T11:58:37Z,42.805,6.029,13.3038,4.60089,2470.661,2022-10-03T14:00:31Z
2022-10-03T12:01:40Z,42.805,6.029,13.3050,4.60095,2470.624,2022-10-03T14:03:34Z
2022-10-03T12:04:43Z,42.805,6.029,13.3042,4.60094,2470.661,2022-10-03T14:06:37Z
2022-10-03T12:07:46Z,42.805,6.029,13.3033,4.60107,2470.661,2022-10-03T14:09:40Z
2022-10-03T12:10:49Z,42.805,6.029,13.3036,4.60095,2470.661,2022-10-03T14:12:43Z
2022-10-03T12:13:52Z,42.805,6.029,13.3027,4.60118,2470.661,2022-10-03T14:15:46Z
2022-10-03T12:16:56Z,42.805,6.029,13.3024,4.60097,2470.624,2022-10-03T14:18:50Z
2022-10-03T12:19:59Z,42.805,6.029,13.3034,4.60067,2470.646,2022-10-03T14:21:53Z
2022-10-03T12:23:02Z,42.805,6.029,13.3025,4.60099,2470.661,2022-10-03T14:24:56Z
2022-10-03T12:26:05Z,42.805,6.029,13.3043,4.60082,2470.661,2022-10-03T14:27:59Z
2022-10-03T12:29:08Z,42.805,6.029,13.3048,4.60064,2470.661,2022-10-03T14:31:02Z
2022-10-03T12:32:11Z,42.805,6.029,13.3054,4.60085,2470.646,2022-10-03T14:34:05Z
2022-10-03T12:35:14Z,42.805,6.029,13.3045,4.60115,2470.661,2022-10-03T14:37:08Z
2022-10-03T12:38:17Z,42.805,6.029,13.3028,4.60067,2470.661,2022-10-03T14:40:11Z
2022-10-03T12:41:21Z,42.805,6.029,13.3041,4.60087,2470.67,2022-10-03T14:43:15Z
2022-10-03T12:44:24Z,42.805,6.029,13.3053,4.60064,2470.646,2022-10-03T14:46:18Z
2022-10-03T12:47:27Z,42.805,6.029,13.3034,4.60066,2470.646,2022-10-03T14:49:21Z
2022-10-03T12:50:30Z,42.805,6.029,13.3034,4.60072,2470.624,2022-10-03T14:52:24Z
2022-10-03T12:53:33Z,42.805,6.029,13.3036,4.60065,2470.646,2022-10-03T14:55:27Z
2022-10-03T12:56:36Z,42.805,6.029,13.3048,4.60076,2470.67,2022-10-03T14:58:30Z
2022-10-03T12:59:39Z,42.805,6.029,13.3046,4.60100,2470.693,2022-10-03T15:01:33Z
2022-10-03T13:02:42Z,42.805,6.029,13.3043,4.60106,2470.661,2022-10-03T15:04:36Z
2022-10-03T13:05:46Z,42.805,6.029,13.3056,4.60104,2470.707,2022-10-03T15:07:40Z
2022-10-03T13:08:49Z,42.805,6.029,13.3056,4.60090,2470.661,2022-10-03T15:10:43Z
2022-10-03T13:11:52Z,42.805,6.029,13.3041,4.60092,2470.67,2022-10-03T15:13:46Z
2022-10-03T13:14:55Z,42.805,6.029,13.3031,4.60119,2470.646,2022-10-03T15:16:49Z
2022-10-03T13:17:58Z,42.805,6.029,13.3041,4.60082,2470.624,2022-10-03T15:19:52Z
2022-10-03T13:21:01Z,42.805,6.029,13.3044,4.60093,2470.67,2022-10-03T15:22:55Z
2022-10-03T13:24:04Z,42.805,6.029,13.3038,4.60120,2470.67,2022-10-03T15:25:58Z
2022-10-03T13:27:07Z,42.805,6.029,13.3041,4.60128,2470.646,2022-10-03T15:29:01Z
2022-10-03T13:30:10Z,42.805,6.029,13.3050,4.60063,2470.646,2022-10-03T15:32:04Z
2022-10-03T13:33:14Z,42.805,6.029,13.3023,4.60104,2470.661,2022-10-03T15:35:08Z
2022-10-03T13:36:17Z,42.805,6.029,13.3032,4.60102,2470.646,2022-10-03T15:38:11Z
2022-10-03T13:39:20Z,42.805,6.029,13.3022,4.60079,2470.661,2022-10-03T15:41:14Z
2022-10-03T13:42:23Z,42.805,6.029,13.3026,4.60077,2470.661,2022-10-03T15:44:17Z
2022-10-03T13:45:26Z,42.805,6.029,13.3033,4.60106,2470.67,2022-10-03T15:47:20Z
2022-10-03T13:48:29Z,42.805,6.029,13.3033,4.60070,2470.67,2022-10-03T15:50:23Z
2022-10-03T13:51:32Z,42.805,6.029,13.3042,4.60074,2470.684,2022-10-03T15:53:26Z
2022-10-03T13:54:35Z,42.805,6.029,13.3019,4.60060,2470.661,2022-10-03T15:56:29Z
2022-10-03T13:57:39Z,42.805,6.029,13.3029,4.60098,2470.67,2022-10-03T15:59:33Z
2022-10-03T14:00:42Z,42.805,6.029,13.3039,4.60085,2470.661,2022-10-03T16:02:36Z
2022-10-03T14:03:45Z,42.805,6.029,13.3038,4.60092,2470.67,2022-10-03T16:05:39Z
2022-10-03T14:06:48Z,42.805,6.029,13.3035,4.60081,2470.624,2022-10-03T16:08:42Z
2022-10-03T14:09:51Z,42.805,6.029,13.3025,4.60092,2470.624,2022-10-03T16:11:45Z
2022-10-03T14:12:54Z,42.805,6.029,13.3034,4.60077,2470.707,2022-10-03T16:14:48Z
2022-10-03T14:15:57Z,42.805,6.029,13.3028,4.60115,2470.661,2022-10-03T16:17:51Z
2022-10-03T14:19:00Z,42.805,6.029,13.3024,4.60084,2470.67,2022-10-03T16:20:54Z
2022-10-03T14:22:04Z,42.805,6.029,13.3029,4.60069,2470.707,2022-10-03T16:23:58Z
2022-10-03T14:25:07Z,42.805,6.029,13.3064,4.60094,2470.646,2022-10-03T16:27:01Z
2022-10-03T14:28:10Z,42.805,6.029,13.3044,4.60111,2470.646,2022-10-03T16:30:04Z
2022-10-03T14:31:13Z,42.805,6.029,13.3039,4.60134,2470.661,2022-10-03T16:33:07Z
2022-10-03T14:34:16Z,42.805,6.029,13.3066,4.60097,2470.661,2022-10-03T16:36:10Z
2022-10-03T14:37:19Z,42.805,6.029,13.3053,4.60081,2470.646,2022-10-03T16:39:13Z
2022-10-03T14:40:22Z,42.805,6.029,13.3068,4.60138,2470.67,2022-10-03T16:42:16Z
2022-10-03T14:43:25Z,42.805,6.029,13.3051,4.60144,2470.646,2022-10-03T16:45:19Z
2022-10-03T14:46:29Z,42.805,6.029,13.3051,4.60167,2470.637,2022-10-03T16:48:23Z
2022-10-03T14:49:32Z,42.805,6.029,13.3043,4.60097,2470.646,2022-10-03T16:51:26Z
2022-10-03T14:52:35Z,42.805,6.029,13.3051,4.60135,2470.684,2022-10-03T16:54:29Z
2022-10-03T14:55:38Z,42.805,6.029,13.3054,4.60150,2470.646,2022-10-03T16:57:32Z
2022-10-03T14:58:41Z,42.805,6.029,13.3081,4.60140,2470.646,2022-10-03T17:00:35Z
2022-10-03T15:01:44Z,42.805,6.029,13.3066,4.60137,2470.684,2022-10-03T17:03:38Z